Regional Weather Roundup
Issued by NWS

Home | Current Version | Previous Version | Text Only | Print | Product List | Glossary On
Versions: 1 2 3 4 5 6 7 8 9 10 11 12 13 14 15 16 17 18 19 20 21 22 23 24 25 26 27 28 29 30 31 32 33 34 35 36 37 38 39 40 41 42 43 44 45 46 47 48 49 50
000
ASUS42 KTBW 032320
RWRFL
FLORIDA REGIONAL WEATHER ROUNDUP
NATIONAL WEATHER SERVICE TAMPA BAY RUSKIN FL
700 PM EDT THU SEP 03 2015

NOTE: "FAIR" INDICATES FEW OR NO CLOUDS BELOW 12,000 FEET WITH NO
SIGNIFICANT WEATHER AND/OR OBSTRUCTIONS TO VISIBILITY.


FLZ001>010-012>015-112-114-115-040000-
PANHANDLE FLORIDA

CITY           SKY/WX    TMP DP  RH WIND       PRES   REMARKS
PENSACOLA      MOSUNNY   84  71  65 SW8       29.92F
PENSACOLA NAS  PTSUNNY   83  74  74 SW7       29.92F
MILTON NAS     LGT RAIN  79  70  74 N6        29.94
CRESTVIEW      LGT RAIN  74  72  93 CALM      29.94F
DUKE FIELD     PTSUNNY   74  71  90 N1        29.94F THUNDER
VALPARAISO     PTSUNNY   85  75  70 W5        29.92F THUNDER
MARY ESTHER    MOSUNNY   84  75  73 W8        29.91F
PANAMA CITY    FAIR      85  75  72 SW12      29.92F
TYNDALL AFB    CLOUDY    85  76  73 W14       29.93F
APALACHICOLA   CLOUDY    83  75  77 W5        29.93S

STATION/POSITION SKY/WX   TEMP    WIND        PRES    WAVE   SWELL
                          AIR SEA DIR/SP/G            HT/PER HT/PER
                          (F)     (DEG/KT/KT) (MB)    (FT/S) (FT/S)
30.1N   87.6W              83 86  310/  4/  6 1012.5F   2/ 3
29.2N   88.2W              79 84  210/  8/  8 1013.8R   1/ 5   2/ 5
28.8N   86.0W              81 87  300/  6/  6 1013.9F   1/ 5   2/ 5
PANAMA CITY BEAC           83 86  260/ 14/ 17 1013.9S
CAPE SAN BLAS    NOT AVBL
TOWER C                    82     290/ 15/ 16 1013.4F
28.5N   84.5W              85 86  320/  6/  8 1013.5F   1/ 7   2/ 7

$$
FLZ011-016>038-118-127-128-134-139-239-040000-
NORTH FLORIDA

CITY           SKY/WX    TMP DP  RH WIND       PRES   REMARKS
MARIANNA       CLOUDY    79  73  82 W7        29.93S
TALLAHASSEE    LGT RAIN  78  72  81 NW5       29.93F
PERRY          CLOUDY    81  75  83 W6        29.92S
CROSS CITY       N/A     86  77  74 W5        29.91F HX  97
LAKE CITY      FAIR      84  75  74 NW3       29.91S
GAINESVILLE    CLOUDY    81  74  79 W9        29.91S
MAYPORT NAS    CLOUDY    83  76  79 NE7       29.90R
JACKSONVILLE   CLOUDY    84  76  76 N3        29.89S
JAX NAS        CLOUDY    90  74  59 NE5       29.90S HX  99
JAX CRAIG      CLOUDY    85  77  77 E3        29.90R HX  95
JAX CECIL      CLEAR     86  75  70 N7        29.90S HX  95
FERNANDINA BEA FAIR      86  77  74 CALM      29.89S HX  97
ST AUGUSTINE   MOCLDY    84  77  79 NE3       29.91R

STATION/POSITION SKY/WX   TEMP    WIND        PRES    WAVE   SWELL
                          AIR SEA DIR/SP/G            HT/PER HT/PER
                          (F)     (DEG/KT/KT) (MB)    (FT/S) (FT/S)
SHELL POINT                76     340/  8/ 12   N/A
KEATON BEACH               84     300/  9/ 12 1013.0F
CEDAR KEY                  85     300/  8/ 11 1013.6F
FERNANDINA                 83 85   70/  3/  6 1011.8F
30.7N   81.3W                 86                N/A     1/ 8
MAYPORT                    84 86   40/  5/  7 1012.7F
31.4N   80.9W              81 84   50/  6/  8 1012.5R   1/ 9   2/ 9
ST AUGUSTINE               83 85  120/  2/  3 1013.3R

$$
FLZ040-043>046-052-053-057-058-063-144-040000-
INTERIOR CENTRAL FLORIDA

CITY           SKY/WX    TMP DP  RH WIND       PRES   REMARKS
OCALA          PTCLDY    82  73  74 CALM      29.92F
THE VILLAGES     N/A     81  75  83 CALM      29.83S
LEESBURG       PTCLDY    79  73  82 CALM      29.92F
SANFORD        CLOUDY    89  73  59 W6        29.90S HX  97
ORLANDO EXEC   MOCLDY    90  73  57 W8        29.90S HX  98
ORLANDO INTL   MOCLDY    89  70  53 W7        29.90S
KISSIMMEE      PTCLDY    91  73  55 NW7       29.91S HX 100
WINTER HAVEN   PTCLDY    91  71  51 NW9       29.92S HX  97
LAKELAND       MOCLDY    91  73  55 NW12      29.92S HX 100
BARTOW         FAIR      91  72  52 NW6       29.92S HX  98
OKEECHOBEE     PTCLDY    90  72  55 NW5       29.91R HX  96

$$
FLZ041-047-054-059-064-141-147-040000-
EAST CENTRAL FLORIDA

CITY           SKY/WX    TMP DP  RH WIND       PRES   REMARKS
DAYTONA BEACH  CLOUDY    85  76  74 CALM      29.90S
NEW SMYRNA BEA PTCLDY    86  75  70 CALM      29.91S HX  95
TITUSVILLE     PTCLDY    84  73  70 VRB5      29.91R
CAPE CANAVERAL PTCLDY    83  75  75 VRB1      29.89R
PATRICK AFB    PTCLDY    83  75  75 E3        29.90R
MELBOURNE      PTCLDY    85  77  77 E6        29.90S HX  95
VERO BEACH     PTCLDY    87  77  72 SE6       29.91S HX  99
FT PIERCE      PTCLDY    86  78  77 S6        29.90F HX  98
STUART         MOCLDY    86  73  66 SE9       29.92S

STATION/POSITION SKY/WX   TEMP    WIND        PRES    WAVE   SWELL
                          AIR SEA DIR/SP/G            HT/PER HT/PER
                          (F)     (DEG/KT/KT) (MB)    (FT/S) (FT/S)
28.5N   80.2W              84 88  260/  6/  6 1012.8F
28.9N   78.5W              85 86  290/  4/  6 1012.8F
TRIDENT PIER               84 87  100/  2/  4 1012.9F
28.4N   80.5W                 86                N/A     1/14
27.5N   80.2W                 87                N/A     1/14

$$
FLZ050-056-061-142-242-148-248-149-249-151-251-155-255-
160-260-040000-
WEST CENTRAL FLORIDA

CITY           SKY/WX    TMP DP  RH WIND       PRES   REMARKS
CRYSTAL RIVER  FAIR      86  73  66 W7        29.93S
INVERNESS      FAIR      82  75  78 CALM      29.93F
BROOKSVILLE    PTCLDY    85  76  74 W9        29.94S
CLEARWATER     MOSUNNY   85  75  72 NW12      29.93S
TAMPA INTL     PTCLDY    87  74  64 NW8G17    29.93S HX  95
TAMPA EXEC     PTCLDY    90  73  58 NW8       29.93R HX  98
PLANT CITY     PTCLDY    90  75  62 NW8       29.94S HX 100
MACDILL AFB    PTCLDY    86  77  73 NW6       29.92S HX  97
PETER O KNIGHT PTCLDY    88  77  70 NW7       29.92F HX 100
ST PETERSBURG  MOSUNNY   88  74  63 NW7       29.91S HX  96
SARASOTA       PTCLDY    86  74  67 NW8       29.92R
VENICE         FAIR      86  75  70 NW10      29.94S HX  95

STATION/POSITION SKY/WX   TEMP    WIND        PRES    WAVE   SWELL
                          AIR SEA DIR/SP/G            HT/PER HT/PER
                          (F)     (DEG/KT/KT) (MB)    (FT/S) (FT/S)
CEDAR KEY                  85     300/  8/ 11 1013.6F
28.5N   84.5W              85 86  320/  6/  8 1013.5F   1/ 7   2/ 7
27.3N   84.2W                 87                N/A     1/ 6
CLEARWATER BEACH           85 87  300/  9/ 10 1013.9F
MIDDLE TAMPA BAY                  310/ 12/ 16 1013.5F
VENICE                     86 89  320/ 11/ 13 1013.1S

$$
FLZ066-069-070-075>078-162-262-165-265-040000-
SOUTHWEST FLORIDA AND KEYS

CITY           SKY/WX    TMP DP  RH WIND       PRES   REMARKS
PUNTA GORDA    PTCLDY    88  74  63 W12       29.92F HX  96
FT MYERS       PTCLDY    88  73  61 NW12      29.91S HX  95
SOUTHWEST INTL PTCLDY    90  73  57 NW6       29.92R HX  98
NAPLES         PTCLDY    85  74  69 S3        29.92S
MARCO ISLAND   CLOUDY    82  70  65 SE3       29.93S
MARATHON       MOCLDY    87  74  64 CALM      29.92S HX  95
KEY WEST NAS   PTCLDY    88  74  63 CALM      29.92F HX  96
KEY WEST INTL  CLEAR     89  75  63 CALM      29.93S HX  99

STATION/POSITION SKY/WX   TEMP    WIND        PRES    WAVE   SWELL
                          AIR SEA DIR/SP/G            HT/PER HT/PER
                          (F)     (DEG/KT/KT) (MB)    (FT/S) (FT/S)
VENICE                     86 89  320/ 11/ 13 1013.1S
NAPLES                        89              1014.8R
26.0N   85.6W              86 89   40/  4/  6 1013.8F   1/ 6
DRY TORTUGAS                                    N/A
NW FL BAY                  87     270/  5/  6 1013.3
SAND KEY                   86      30/  3     1013.4F
LONG KEY                   90 90     CALM     1014.2R
MOLASSES REEF              85 87   CALM  /  1 1013.5R

$$
FLZ067-068-071>074-168-172>174-040000-
SOUTHEAST FLORIDA

CITY           SKY/WX    TMP DP  RH WIND       PRES   REMARKS
W PALM BEACH   MOCLDY    84  73  69 S7        29.92S
FT LAUDER-EXEC MOCLDY    86  75  69 SE6       29.92S HX  95
FT LAUDERDALE  MOCLDY    85  75  72 S8        29.92S
POMPANO BEACH  MOCLDY    86  75  69 S8        29.92S HX  95
PEMBROKE PINES MOCLDY    81  71  71 SW12G22   29.94R
OPA LOCKA      CLOUDY    80  72  76 W17G28    29.94R
MIAMI          CLOUDY    80  73  79 W12       29.94R
WEST KENDALL   CLOUDY    81  76  84 W10       29.94R
HOMESTEAD      CLOUDY    85  75  73 SW5       29.93R

STATION/POSITION SKY/WX   TEMP    WIND        PRES    WAVE   SWELL
                          AIR SEA DIR/SP/G            HT/PER HT/PER
                          (F)     (DEG/KT/KT) (MB)    (FT/S) (FT/S)
PORT EVERGLADES            85     170/  7/ 10 1013.3F
VIRGINIA KEY               85 89  140/  7/  9 1013.1R
LAKE WORTH                 86 88  120/  9/ 10 1012.6R
FOWEY ROCKS                85 87  170/  6/  7 1013.4R
SETTLEMENT POINT           85      CALM  /  1 1014.0R

$$



USA.gov is the U.S. government's official web portal to all federal, state and local government web resources and services.